sat.trackr.live / text

‹ back to catalog

STARLINK-35731

NORAD 66228 · 2025-244Y

PAYLOAD ACTIVE UNKNOWN

§ Identity

Operator
Country
US
Launch date
2025-10-28
Launch site
AFWTR
Launch vehicle
Mass (kg)
RCS (m²)

Purposes: comms

External: N2YO · Heavens-Above · Gunter

§ Orbital elements

Epoch: 2026-09-20T14:33:41.319072Z

Period
93.85 min
Inclination
53.1593°
Eccentricity
0.0001061
Mean motion
15.34408687 rev/d
Perigee alt
462.0 km
Apogee alt
463.4 km
Semi-major
6,840.8 km
B*
3.9865e-4
RAAN
40.8888°
Arg perigee
102.1454°
Mean anomaly
257.9667°
Rev number
5,155

§ Raw data

STARLINK-357311 66228U 25244Y   26263.60672823  .00013120  00000+0  39865-3 0  99942 66228  53.1593  40.8888 0001061 102.1454 257.9667 15.34408687 51557

JSON: /api/v1/satellites/66228 · /tle

For live sub-satellite position, see the globe view (requires WebGL).

§ Visibility from observer

Set your observer location to see the next 7 days of passes ≥ 10°. The values pass through the URL so the page stays shareable.

No JS? Fill the form by hand. The geolocation button needs JavaScript.